Weather History for Santa Fe, NM

Change the Weather History Date:

Sunday, September 8, 2013

  Actual Average Record
Temperature  
Mean Temperature 72 °F -  
Max Temperature 86 °F 81 °F 87 °F (2007)
Min Temperature 59 °F 48 °F 39 °F (2001)
Cooling Degree Days 6    
Growing Degree Days 22 (Base 50)    
Moisture  
Dew Point 44 °F    
Average Humidity 37    
Maximum Humidity 58    
Minimum Humidity 18    
Precipitation  
Precipitation 0.00 in - - ()
Sea Level Pressure  
Sea Level Pressure 29.86 in    
Wind  
Wind Speed 8 mph (SE)    
Max Wind Speed 22 mph    
Max Gust Speed 30 mph    
Visibility 10 miles    
Events Rain    
Averages and records for this station are not official NWS values.
T = Trace of Precipitation, MM = Missing Value Source: NWS Daily Summary

Daily Weather History Graph

Daily Weather History Graph

Search for Another Location

Airport:

Trip Planner

Search our weather history database for the weather conditions in past years. The results will help you decide how hot, cold, wet, or windy it might be!

Date:

Astronomy

Sep. 08, 2013 Rise Set
Actual Time 6:41 AM MDT 7:21 PM MDT
Civil Twilight 6:16 AM MDT 7:46 PM MDT
Nautical Twilight 5:45 AM MDT 8:17 PM MDT
Astronomical Twilight 5:14 AM MDT 8:48 PM MDT
Moon 9:53 AM MDT (9/8) 9:07 PM MDT (9/8)
Length of Visible Light 13h 30m
Length of Day
12h 39m
Waxing Crescent, 11% of the Moon is Illuminated
Sep 8
Waxing Crescent
Sep 12
First Quarter
Sep 19
Full
Sep 26
Last Quarter
Oct 4
New

Hourly Weather History & Observations

Time (MDT) Temp. Dew Point Humidity Pressure Visibility Wind Dir Wind Speed Gust Speed Precip Events Conditions
12:53 AM 68.0 °F 42.1 °F 39% 29.93 in 10.0 mi East 3.5 mph - N/A   Clear
1:53 AM 66.9 °F 43.0 °F 42% 29.92 in 10.0 mi ESE 5.8 mph - N/A   Clear
2:53 AM 66.0 °F 44.1 °F 45% 29.90 in 10.0 mi ESE 9.2 mph - N/A   Clear
3:53 AM 66.0 °F 44.1 °F 45% 29.89 in 10.0 mi ESE 6.9 mph - N/A   Clear
4:53 AM 66.0 °F 45.0 °F 47% 29.89 in 10.0 mi East 6.9 mph - N/A   Partly Cloudy
5:53 AM 62.1 °F 44.1 °F 52% 29.91 in 10.0 mi Calm Calm - N/A   Clear
6:53 AM 59.0 °F 44.1 °F 58% 29.93 in 10.0 mi WNW 3.5 mph - N/A   Clear
7:53 AM 66.0 °F 45.0 °F 47% 29.92 in 10.0 mi NW 3.5 mph - N/A   Clear
8:53 AM 73.0 °F 46.0 °F 38% 29.91 in 10.0 mi SE 6.9 mph - N/A   Clear
9:53 AM 75.0 °F 45.0 °F 34% 29.91 in 10.0 mi South 6.9 mph - N/A   Clear
10:53 AM 78.1 °F 44.1 °F 30% 29.90 in 10.0 mi Variable 6.9 mph - N/A   Clear
11:53 AM 79.0 °F 42.1 °F 27% 29.88 in 10.0 mi South 8.1 mph 16.1 mph N/A   Clear
12:53 PM 79.0 °F 41.0 °F 26% 29.85 in 10.0 mi Variable 4.6 mph - N/A   Scattered Clouds
1:53 PM 84.0 °F 39.0 °F 20% 29.81 in 10.0 mi SE 11.5 mph 20.7 mph N/A   Clear
2:53 PM 84.0 °F 37.0 °F 19% 29.79 in 10.0 mi SSE 5.8 mph 21.9 mph N/A   Scattered Clouds
3:53 PM 84.9 °F 37.0 °F 18% 29.75 in 10.0 mi South 16.1 mph 19.6 mph N/A   Clear
4:53 PM 82.9 °F 44.1 °F 25% 29.73 in 10.0 mi ESE 20.7 mph - N/A   Mostly Cloudy
5:00 PM 80.6 °F 42.8 °F 26% 30.07 in 10.0 mi ESE 21.9 mph 27.6 mph N/A   Scattered Clouds
5:53 PM 82.0 °F 43.0 °F 25% 29.75 in 10.0 mi ESE 19.6 mph 29.9 mph N/A   Clear
6:53 PM 80.1 °F 43.0 °F 27% 29.77 in 10.0 mi ESE 15.0 mph 21.9 mph N/A   Partly Cloudy
7:53 PM 70.0 °F 52.0 °F 53% 29.82 in 7.0 mi East 19.6 mph 25.3 mph 0.00 in Rain Light Rain
8:53 PM 72.0 °F 53.1 °F 51% 29.79 in 10.0 mi SE 6.9 mph - 0.00 in   Overcast
9:53 PM 70.0 °F 48.9 °F 47% 29.81 in 10.0 mi SE 10.4 mph - N/A   Clear
10:53 PM 70.0 °F 46.0 °F 42% 29.83 in 10.0 mi SSW 6.9 mph - N/A   Overcast
11:53 PM 68.0 °F 48.0 °F 49% 29.84 in 10.0 mi SE 3.5 mph - N/A   Scattered Clouds